CW9560 Weather Reports


Display with metric or nautical units.
time (UTC)temp
F
wind
direction
speed
MPH
gust
MPH
rain 1hr
in
rain 24hr
in
rain mn
in
humidity
%
barometer
mb
20171217080507 39 64 2.0 3.0 0.01 0.02 0.02 84 1011.7
20171217080009 39 63 2.0 3.0 0.00 0.01 0.01 84 1011.7
20171217075507 39 63 3.0 3.0 0.00 0.01 0.01 84 1012.0
20171217075007 38 63 1.0 3.0 0.00 0.01 0.01 84 1012.1
20171217074507 38 63 0.0 0.0 0.01 0.01 0.01 84 1012.1
20171217074007 38 63 0.0 0.0 0.01 0.01 0.01 84 1012.1
20171217073507 38 63 0.0 0.0 0.01 0.01 0.01 84 1012.0
20171217073008 38 63 0.0 0.0 0.01 0.01 0.01 84 1012.0
20171217072507 37 63 0.0 0.0 0.01 0.01 0.01 84 1012.1
20171217072008 37 63 0.0 3.0 0.01 0.01 0.01 84 1012.2
20171217071506 37 63 0.0 3.0 0.01 0.01 0.01 84 1012.2
20171217071007 36 63 1.0 3.0 0.01 0.01 0.01 83 1012.3
20171217070506 36 63 1.0 3.0 0.01 0.01 0.01 84 1012.5
20171217070006 37 63 0.0 0.0 0.01 0.01 0.01 84 1012.6
20171217065507 37 63 0.0 0.0 0.01 0.01 0.01 84 1012.8
20171217065007 37 63 0.0 0.0 0.01 0.01 0.01 84 1013.0
20171217064507 37 63 0.0 0.0 0.00 0.00 0.00 84 1013.2
20171217064008 37 63 0.0 0.0 0.00 0.00 0.00 84 1013.3
20171217063507 37 63 0.0 0.0 0.00 0.00 0.00 84 1013.3
20171217063007 37 63 0.0 3.0 0.00 0.00 0.00 84 1013.4
20171217062506 37 63 1.0 3.0 0.00 0.00 0.00 84 1013.6
20171217062008 37 63 0.0 3.0 0.00 0.00 0.00 84 1013.7
20171217061507 37 63 2.0 3.0 0.00 0.00 0.00 84 1013.8
20171217061007 37 63 1.0 3.0 0.00 0.00 0.00 84 1013.9
20171217060507 36 63 0.0 3.0 0.00 0.00 0.00 84 1014.0
20171217060008 36 63 0.0 3.0 0.00 0.00 0.00 84 1014.2
20171217055507 36 63 2.0 3.0 0.00 0.00 0.00 84 1014.3
20171217055007 36 63 0.0 0.0 0.00 0.00 0.00 84 1014.4
20171217054507 35 63 0.0 1.0 0.00 0.00 0.00 83 1014.4
20171217054008 35 63 0.0 3.0 0.00 0.00 0.00 83 1014.5
20171217053507 35 63 1.0 3.0 0.00 0.00 0.00 83 1014.5
20171217053008 35 63 1.0 3.0 0.00 0.00 0.00 83 1014.7
20171217052507 34 63 1.0 3.0 0.00 0.00 0.00 83 1014.9
20171217052008 34 63 0.0 3.0 0.00 0.00 0.00 83 1014.9
20171217051507 33 63 2.0 3.0 0.00 0.00 0.00 83 1015.0
20171217051008 33 63 3.0 3.0 0.00 0.00 0.00 83 1015.1
20171217050507 33 63 2.0 3.0 0.00 0.00 0.00 83 1015.2
20171217050007 33 63 1.0 3.0 0.00 0.00 0.00 83 1015.4
20171217045507 34 63 2.0 3.0 0.00 0.00 0.00 83 1015.5
20171217045007 33 63 0.0 3.0 0.00 0.00 0.00 83 1015.6
20171217044507 33 63 0.0 0.0 0.00 0.00 0.00 83 1015.7
20171217044008 33 63 0.0 0.0 0.00 0.00 0.00 83 1015.7
20171217043508 33 63 0.0 0.0 0.00 0.00 0.00 83 1015.8
20171217043008 33 63 0.0 1.0 0.00 0.00 0.00 83 1016.0
20171217042507 33 63 0.0 3.0 0.00 0.00 0.00 83 1016.0
20171217042007 33 63 0.0 6.0 0.00 0.00 0.00 83 1016.1
20171217041507 34 63 2.0 8.0 0.00 0.00 0.00 84 1016.1
20171217041007 33 71 3.0 8.0 0.00 0.00 0.00 83 1016.2
20171217040507 32 74 4.0 7.0 0.00 0.00 0.00 83 1016.4
20171217040009 32 74 2.0 3.0 0.00 0.00 0.00 83 1016.6
20171217035508 31 74 3.0 5.0 0.00 0.00 0.00 83 1016.6
20171217035009 31 74 3.0 5.0 0.00 0.00 0.00 83 1016.7
20171217034507 31 74 3.0 3.0 0.00 0.00 0.00 83 1016.8
20171217034007 31 74 0.0 3.0 0.00 0.00 0.00 83 1017.0
20171217033507 31 74 1.0 3.0 0.00 0.00 0.00 83 1017.2
20171217033007 31 74 1.0 3.0 0.00 0.00 0.00 83 1017.3
20171217032507 31 74 2.0 3.0 0.00 0.00 0.00 82 1017.3
20171217032008 31 74 2.0 3.0 0.00 0.00 0.00 82 1017.4
20171217031507 31 74 2.0 5.0 0.00 0.00 0.00 82 1017.5
20171217031008 30 74 2.0 5.0 0.00 0.00 0.00 82 1017.5
20171217030506 30 74 3.0 5.0 0.00 0.00 0.00 82 1017.5
20171217030006 30 74 3.0 5.0 0.00 0.00 0.00 82 1017.7
20171217025507 30 75 2.0 5.0 0.00 0.00 0.00 82 1017.7
20171217025007 30 75 3.0 5.0 0.00 0.00 0.00 82 1017.8
20171217024507 30 75 3.0 5.0 0.00 0.00 0.00 82 1017.9
20171217024007 30 78 3.0 5.0 0.00 0.00 0.00 82 1017.9
20171217023507 30 78 2.0 5.0 0.00 0.00 0.00 82 1018.0
20171217023007 30 78 4.0 5.0 0.00 0.00 0.00 82 1018.0
20171217022506 30 77 2.0 3.0 0.00 0.00 0.00 82 1018.1
20171217022008 30 77 2.0 3.0 0.00 0.00 0.00 82 1018.2
20171217021507 30 77 2.0 3.0 0.00 0.00 0.00 82 1018.3
20171217021008 30 77 1.0 3.0 0.00 0.00 0.00 82 1018.3
20171217020507 30 78 2.0 3.0 0.00 0.00 0.00 82 1018.3
20171217020008 30 78 1.0 5.0 0.00 0.00 0.00 82 1018.4
20171217015507 30 78 3.0 5.0 0.00 0.00 0.00 82 1018.4
20171217015008 29 76 2.0 5.0 0.00 0.00 0.00 82 1018.4
20171217014507 29 80 3.0 5.0 0.00 0.00 0.00 82 1018.5
20171217014007 29 82 3.0 5.0 0.00 0.00 0.00 82 1018.6
20171217013508 29 81 3.0 5.0 0.00 0.00 0.00 82 1018.6
20171217013007 29 82 3.0 5.0 0.00 0.00 0.00 82 1018.7
20171217012507 29 91 2.0 3.0 0.00 0.00 0.00 82 1018.8
20171217012008 29 91 2.0 3.0 0.00 0.00 0.00 82 1018.8
20171217011507 29 91 0.0 0.0 0.00 0.00 0.00 82 1018.9
20171217011007 29 91 0.0 0.0 0.00 0.00 0.00 83 1018.9
20171217010507 29 91 0.0 3.0 0.00 0.00 0.00 83 1018.9
20171217010008 29 91 1.0 3.0 0.00 0.00 0.00 83 1019.0
20171217005507 29 91 1.0 3.0 0.00 0.00 0.00 83 1019.0
20171217005007 29 91 1.0 3.0 0.00 0.00 0.00 82 1019.1
20171217004507 29 63 1.0 3.0 0.00 0.00 0.00 82 1019.1
20171217004007 28 64 0.0 0.0 0.00 0.00 0.00 82 1019.2
20171217003507 28 64 0.0 0.0 0.00 0.00 0.00 83 1019.3
20171217003007 28 64 0.0 0.0 0.00 0.00 0.00 83 1019.4
20171217002507 28 64 0.0 0.0 0.00 0.00 0.00 83 1019.4
20171217002007 28 64 0.0 0.0 0.00 0.00 0.00 83 1019.6
20171217001507 28 64 0.0 0.0 0.00 0.00 0.00 83 1019.6
20171217001007 28 64 0.0 0.0 0.00 0.00 0.00 82 1019.6
20171217000511 28 64 0.0 0.0 0.00 0.00 0.00 82 1019.5
20171217000008 28 64 0.0 0.0 0.00 0.00 0.00 82 1019.6
20171216235507 28 64 0.0 0.0 0.00 0.00 0.00 82 1019.6
20171216235007 28 64 0.0 0.0 0.00 0.00 0.00 82 1019.7
20171216234506 28 64 0.0 2.0 0.00 0.00 0.00 83 1019.6
20171216234008 28 64 0.0 3.0 0.00 0.00 0.00 83 1019.6
20171216233506 28 64 1.0 3.0 0.00 0.00 0.00 83 1019.6
20171216233007 28 64 2.0 3.0 0.00 0.00 0.00 83 1019.6
20171216232507 28 64 0.0 3.0 0.00 0.00 0.00 83 1019.7
20171216232008 28 64 1.0 3.0 0.00 0.00 0.00 83 1019.7
20171216231507 28 64 1.0 3.0 0.00 0.00 0.00 83 1019.7
20171216231008 28 64 0.0 0.0 0.00 0.00 0.00 83 1019.7
20171216230507 28 64 0.0 0.0 0.00 0.00 0.00 83 1019.8
20171216230007 28 64 0.0 0.0 0.00 0.00 0.00 83 1019.8
20171216225507 28 64 0.0 0.0 0.00 0.00 0.00 83 1019.8
20171216225007 28 64 0.0 0.0 0.00 0.00 0.00 83 1019.9
20171216224507 28 64 0.0 0.0 0.00 0.00 0.00 83 1019.9
20171216224007 28 64 0.0 0.0 0.00 0.00 0.00 83 1019.9
20171216223508 27 64 0.0 0.0 0.00 0.00 0.00 83 1020.0
20171216223007 27 64 0.0 0.0 0.00 0.00 0.00 83 1020.0
20171216222506 27 64 0.0 0.0 0.00 0.00 0.00 83 1020.0
20171216222007 27 64 0.0 0.0 0.00 0.00 0.00 83 1020.1
20171216221506 27 64 0.0 0.0 0.00 0.00 0.00 83 1020.2
20171216221007 27 64 0.0 0.0 0.00 0.00 0.00 83 1020.2
20171216220507 27 64 0.0 1.0 0.00 0.00 0.00 82 1020.1
20171216220008 27 64 0.0 2.0 0.00 0.00 0.00 82 1019.9
20171216215507 27 64 1.0 2.0 0.00 0.00 0.00 82 1020.0
20171216215007 26 64 1.0 3.0 0.00 0.00 0.00 82 1020.0
20171216214507 26 64 1.0 3.0 0.00 0.00 0.00 82 1020.0
20171216214008 26 64 0.0 1.0 0.00 0.00 0.00 82 1020.1
20171216213507 26 64 0.0 3.0 0.00 0.00 0.00 82 1020.1
20171216213008 27 64 0.0 3.0 0.00 0.00 0.00 82 1019.9
20171216212506 27 64 3.0 3.0 0.00 0.00 0.00 82 1019.8
20171216212008 27 64 1.0 3.0 0.00 0.00 0.00 82 1019.8
20171216211507 27 64 1.0 3.0 0.00 0.00 0.00 82 1019.8
20171216211007 27 64 0.0 1.0 0.00 0.00 0.00 82 1019.8
20171216210507 27 64 0.0 3.0 0.00 0.00 0.00 82 1019.8
20171216210007 27 64 0.0 3.0 0.00 0.00 0.00 82 1019.9
20171216205507 27 64 0.0 3.0 0.00 0.00 0.00 82 1019.9
20171216205007 27 64 1.0 3.0 0.00 0.00 0.00 82 1019.8
20171216204506 27 63 3.0 3.0 0.00 0.00 0.00 82 1019.8
20171216204008 27 44 2.0 3.0 0.00 0.00 0.00 82 1019.8
20171216203507 27 32 2.0 3.0 0.00 0.00 0.00 81 1019.8
20171216203007 27 302 0.0 0.0 0.00 0.00 0.00 81 1019.8
20171216202506 27 302 0.0 0.0 0.00 0.00 0.00 81 1019.8
20171216202008 27 302 0.0 2.0 0.00 0.00 0.00 81 1019.8
20171216201506 27 302 0.0 2.0 0.00 0.00 0.00 81 1019.8
20171216201008 28 302 1.0 2.0 0.00 0.00 0.00 81 1019.8
20171216200506 28 302 0.0 3.0 0.00 0.00 0.00 80 1019.8
20171216200008 28 302 1.0 3.0 0.00 0.00 0.00 81 1019.8
20171216195507 29 309 2.0 3.0 0.00 0.00 0.00 80 1019.8
20171216195007 29 59 0.0 3.0 0.00 0.00 0.00 81 1019.7
20171216194507 29 59 0.0 5.0 0.00 0.00 0.00 81 1019.7
20171216194007 29 56 3.0 6.0 0.00 0.00 0.00 81 1019.6
20171216193507 29 92 3.0 6.0 0.00 0.00 0.00 80 1019.5
20171216193008 30 100 3.0 6.0 0.00 0.00 0.00 80 1019.5
20171216192507 30 66 3.0 5.0 0.00 0.00 0.00 80 1019.6
20171216192007 30 267 2.0 3.0 0.00 0.00 0.00 80 1019.7
20171216191506 30 267 0.0 3.0 0.00 0.00 0.00 80 1019.7
20171216191007 30 267 2.0 3.0 0.00 0.00 0.00 80 1019.7
20171216190507 30 278 2.0 3.0 0.00 0.00 0.00 79 1019.7
20171216190006 31 164 2.0 3.0 0.00 0.00 0.00 80 1019.5
20171216185506 31 164 1.0 3.0 0.00 0.00 0.00 79 1019.4
20171216185007 31 164 2.0 3.0 0.00 0.00 0.00 79 1019.3
20171216184506 31 164 1.0 3.0 0.00 0.00 0.00 79 1019.3
20171216184007 32 164 1.0 5.0 0.00 0.00 0.00 79 1019.2
20171216183506 32 164 3.0 5.0 0.00 0.00 0.00 79 1019.2
20171216183007 33 138 3.0 5.0 0.00 0.00 0.00 79 1019.2
20171216182506 32 85 2.0 3.0 0.00 0.00 0.00 80 1019.2
20171216182011 32 73 1.0 7.0 0.00 0.00 0.00 79 1019.3
20171216181507 32 17 2.0 8.0 0.00 0.00 0.00 79 1019.3
20171216181007 32 170 5.0 9.0 0.00 0.00 0.00 80 1019.2
20171216180506 32 145 6.0 9.0 0.00 0.00 0.00 80 1019.0
20171216180008 31 139 3.0 8.0 0.00 0.00 0.00 80 1019.0
20171216175507 31 167 3.0 6.0 0.00 0.00 0.00 80 1019.0
20171216175007 31 116 2.0 3.0 0.00 0.00 0.00 81 1019.0
20171216174506 31 115 1.0 3.0 0.00 0.00 0.00 81 1019.0
20171216174009 30 115 1.0 3.0 0.00 0.00 0.00 81 1019.1
20171216173507 30 115 1.0 3.0 0.00 0.00 0.00 81 1019.0
20171216173007 30 115 2.0 5.0 0.00 0.00 0.00 81 1018.8
20171216172506 30 149 3.0 5.0 0.00 0.00 0.00 81 1018.7
20171216172007 30 251 0.0 5.0 0.00 0.00 0.00 80 1018.6
20171216171507 30 267 2.0 5.0 0.00 0.00 0.00 80 1018.6
20171216171008 30 142 2.0 5.0 0.00 0.00 0.00 80 1018.6
20171216170506 30 160 3.0 5.0 0.00 0.00 0.00 80 1018.6
20171216170007 30 289 1.0 3.0 0.00 0.00 0.00 80 1018.6
20171216165507 30 289 2.0 3.0 0.00 0.00 0.00 80 1018.5
20171216165007 30 290 2.0 3.0 0.00 0.00 0.00 80 1018.4
20171216164506 30 301 1.0 3.0 0.00 0.00 0.00 80 1018.3
20171216164007 30 301 1.0 3.0 0.00 0.00 0.00 79 1018.3
20171216163506 31 292 1.0 3.0 0.00 0.00 0.00 79 1018.3
20171216163008 31 199 0.0 3.0 0.00 0.00 0.00 79 1018.2
20171216162506 32 199 0.0 3.0 0.00 0.00 0.00 79 1018.0
20171216162007 32 199 2.0 3.0 0.00 0.00 0.00 79 1018.0
20171216161507 32 321 1.0 3.0 0.00 0.00 0.00 79 1017.8
20171216161007 32 321 1.0 3.0 0.00 0.00 0.00 79 1017.8
20171216160507 32 316 2.0 3.0 0.00 0.00 0.00 79 1017.8
20171216160009 32 278 0.0 3.0 0.00 0.00 0.00 79 1017.8
20171216155506 33 279 2.0 3.0 0.00 0.00 0.00 79 1017.9
20171216155006 33 312 1.0 3.0 0.00 0.00 0.00 79 1017.8
20171216154507 32 336 2.0 3.0 0.00 0.00 0.00 79 1017.8
20171216154008 33 127 1.0 3.0 0.00 0.00 0.00 79 1017.8
20171216153507 33 128 2.0 3.0 0.00 0.00 0.00 79 1017.8
20171216153007 33 158 2.0 3.0 0.00 0.00 0.00 79 1017.7
20171216152506 33 158 1.0 3.0 0.00 0.00 0.00 78 1017.5
20171216152007 33 158 1.0 3.0 0.00 0.00 0.00 79 1017.3
20171216151506 34 158 1.0 3.0 0.00 0.00 0.00 79 1017.1
20171216151007 34 159 2.0 3.0 0.00 0.00 0.00 79 1017.2
20171216150507 34 174 2.0 3.0 0.00 0.00 0.00 78 1017.3
20171216150007 34 175 2.0 6.0 0.00 0.00 0.00 78 1017.3
20171216145506 34 161 1.0 7.0 0.00 0.00 0.00 78 1017.3
20171216145007 34 155 3.0 7.0 0.00 0.00 0.00 78 1017.2
20171216144506 35 140 3.0 5.0 0.00 0.00 0.00 78 1017.2
20171216144008 35 132 2.0 3.0 0.00 0.00 0.00 78 1017.1
20171216143507 35 132 1.0 3.0 0.00 0.00 0.00 78 1017.2
20171216143007 35 132 2.0 7.0 0.00 0.00 0.00 78 1017.3
20171216142506 36 135 3.0 7.0 0.00 0.00 0.00 78 1017.1
20171216142006 36 130 3.0 5.0 0.00 0.00 0.00 78 1017.2
20171216141506 36 125 3.0 5.0 0.00 0.00 0.00 78 1017.1
20171216141007 36 171 1.0 5.0 0.00 0.00 0.00 78 1016.8
20171216140506 36 169 3.0 5.0 0.00 0.00 0.00 78 1016.8
20171216140007 35 168 1.0 5.0 0.00 0.00 0.00 79 1016.9
20171216135507 34 167 2.0 5.0 0.00 0.00 0.00 79 1016.8
20171216135008 34 167 2.0 5.0 0.00 0.00 0.00 78 1016.8
20171216134506 34 167 4.0 5.0 0.00 0.00 0.00 78 1016.9
20171216134008 34 34 3.0 5.0 0.00 0.00 0.00 79 1017.0
20171216133506 34 30 0.0 2.0 0.00 0.00 0.00 79 1016.8
20171216133007 34 30 1.0 2.0 0.00 0.00 0.00 80 1016.6
20171216132506 33 30 1.0 2.0 0.00 0.00 0.00 80 1016.9
20171216132007 32 30 1.0 3.0 0.00 0.00 0.00 80 1016.7
20171216131506 32 30 1.0 3.0 0.00 0.00 0.00 80 1016.5
20171216131007 32 30 2.0 3.0 0.00 0.00 0.00 80 1016.4
20171216130507 32 30 0.0 1.0 0.00 0.00 0.00 80 1016.3
20171216130006 32 30 0.0 1.0 0.00 0.00 0.00 80 1016.4
20171216125506 32 30 0.0 2.0 0.00 0.00 0.00 80 1016.6
20171216125007 32 30 0.0 3.0 0.00 0.00 0.00 80 1016.6
20171216124506 32 30 1.0 3.0 0.00 0.00 0.00 80 1016.5
20171216124007 32 30 2.0 3.0 0.00 0.00 0.00 80 1016.6
20171216123506 32 30 0.0 0.0 0.00 0.00 0.00 80 1016.9
20171216123007 32 30 0.0 0.0 0.00 0.00 0.00 80 1016.9
20171216122507 32 30 0.0 0.0 0.00 0.00 0.00 80 1016.9
20171216122008 32 30 0.0 0.0 0.00 0.00 0.00 80 1016.9
20171216121507 32 30 0.0 0.0 0.00 0.00 0.00 80 1016.7
20171216121007 32 30 0.0 0.0 0.00 0.00 0.00 80 1016.7
20171216120507 32 30 0.0 0.0 0.00 0.00 0.00 80 1016.7
20171216120007 32 30 0.0 0.0 0.00 0.00 0.00 80 1016.7
20171216115506 32 30 0.0 0.0 0.00 0.00 0.00 80 1016.6
20171216115007 32 30 0.0 1.0 0.00 0.00 0.00 80 1016.6
20171216114506 32 30 0.0 1.0 0.00 0.00 0.00 79 1016.5
20171216114007 31 30 0.0 1.0 0.00 0.00 0.00 79 1016.4
20171216113506 31 30 0.0 3.0 0.00 0.00 0.00 79 1016.2
20171216113007 31 30 0.0 3.0 0.00 0.00 0.00 79 1016.2
20171216112506 31 30 1.0 3.0 0.00 0.00 0.00 79 1016.1
20171216112007 31 30 0.0 3.0 0.00 0.00 0.00 79 1016.1
20171216111507 32 30 1.0 3.0 0.00 0.00 0.00 79 1016.1
20171216111007 32 30 1.0 3.0 0.00 0.00 0.00 79 1016.1
20171216110506 32 30 0.0 3.0 0.00 0.00 0.00 79 1016.0
20171216110006 32 30 2.0 3.0 0.00 0.00 0.00 79 1016.0
20171216105506 32 28 0.0 3.0 0.00 0.00 0.00 79 1016.0
20171216105007 32 29 2.0 3.0 0.00 0.00 0.00 80 1015.9
20171216104507 31 31 0.0 0.0 0.00 0.00 0.00 80 1015.9
20171216104007 31 31 0.0 0.0 0.00 0.00 0.00 80 1015.7
20171216103506 31 31 0.0 0.0 0.00 0.00 0.00 81 1015.6
20171216103007 31 31 0.0 0.0 0.00 0.00 0.00 81 1015.6
20171216102506 30 31 0.0 0.0 0.00 0.00 0.00 81 1015.8
20171216102007 30 31 0.0 0.0 0.00 0.00 0.00 81 1015.7
20171216101506 29 31 0.0 0.0 0.00 0.00 0.00 81 1015.6
20171216101007 29 31 0.0 0.0 0.00 0.00 0.00 81 1015.5
20171216100507 28 31 0.0 0.0 0.00 0.00 0.00 81 1015.5
20171216100007 28 31 0.0 0.0 0.00 0.00 0.00 81 1015.5
20171216095506 28 31 0.0 0.0 0.00 0.00 0.00 81 1015.5
20171216095007 28 31 0.0 0.0 0.00 0.00 0.00 81 1015.4
20171216094506 28 31 0.0 0.0 0.00 0.00 0.00 80 1015.4
20171216094007 28 31 0.0 0.0 0.00 0.00 0.00 80 1015.4
20171216093506 28 31 0.0 0.0 0.00 0.00 0.00 80 1015.4
20171216093007 28 31 0.0 0.0 0.00 0.00 0.00 80 1015.3
20171216092506 28 31 0.0 0.0 0.00 0.00 0.00 80 1015.3
20171216092007 28 31 0.0 0.0 0.00 0.00 0.00 80 1015.2
20171216091506 28 31 0.0 2.0 0.00 0.00 0.00 80 1015.1
20171216091007 29 31 0.0 2.0 0.00 0.00 0.00 80 1015.1
20171216090507 29 31 0.0 1.0 0.00 0.00 0.00 80 1015.0
20171216090006 29 31 0.0 2.0 0.00 0.00 0.00 80 1014.9
20171216085506 29 31 0.0 3.0 0.00 0.00 0.00 80 1014.9
20171216085007 29 31 1.0 5.0 0.00 0.00 0.00 80 1014.9
20171216084506 29 31 1.0 5.0 0.00 0.00 0.00 80 1014.9
20171216084008 29 19 1.0 3.0 0.00 0.00 0.00 80 1014.8
20171216083506 29 19 2.0 3.0 0.00 0.00 0.00 80 1014.7
20171216083006 29 9 2.0 3.0 0.00 0.00 0.00 80 1014.7
20171216082506 29 9 0.0 2.0 0.00 0.00 0.00 79 1014.7
20171216082007 29 9 0.0 0.0 0.00 0.00 0.00 79 1014.7
20171216081507 29 9 0.0 1.0 0.00 0.00 0.00 79 1014.6
20171216081007 29 9 0.0 1.0 0.00 0.00 0.00 79 1014.7